Terminal Aerodrome Forecast
Issued by NWS Portland, OR

Home | Current Version | Previous Version | Text Only | Print | Product List | Glossary On
Versions: 1 2 3 4 5 6 7 8 9 10 11 12 13 14 15 16 17 18 19 20 21 22 23 24 25 26 27 28 29 30 31 32 33 34 35 36 37 38 39 40 41 42 43 44 45 46 47 48
695
FTUS46 KPQR 110541
TAFPDX
TAF
KPDX 110541Z 1106/1206 08004KT P6SM OVC060
     FM111500 12007KT P6SM OVC050
     FM111800 11008KT P6SM -RA OVC040
     FM120100 11007KT P6SM OVC050=

USA.gov is the U.S. government's official web portal to all federal, state and local government web resources and services.